Orbital Elements at Epoch 2459200.5 (2020-Dec-17.0) TDB
Reference: JPL 17 (heliocentric ecliptic J2000)
Element | Value | Uncertainty (1-sigma) | Units |
e | .1205422352061088 | 2.8271e-08 | |
a | 2.421774970373453 | 1.0813e-08 | au |
q | 2.129848802278429 | 6.854e-08 | au |
i | 6.844279228954269 | 6.215e-06 | deg |
node | 347.9486009090107 | 3.108e-05 | deg |
peri | 292.158048820771 | 4.2301e-05 | deg |
M | 98.50948345614376 | 2.8257e-05 | deg |
tp | 2458823.818191004491 (2019-Dec-06.31819100) | 0.00010778 | TDB |
period | 1376.572554039981 3.77 | 9.2197e-06 2.524e-08 | d yr |
n | .2615190888002726 | 1.7515e-09 | deg/d |
Q | 2.713701138468477 | 1.2117e-08 | au |
|
| | Orbit Determination Parameters
Additional Information
|